DW7368 Weather Reports


time (UTC)temp
C
wind
direction
speed
KPH
gust
KPH
rain 1hr
cm
rain 24hr
cm
rain mn
cm
humidity
%
barometer
mb
20260502210110 22 354 4.8 17.7 0.00 0.97 0.53 50 1016.3
20260502204558 22 44 8.0 17.7 0.00 2.08 0.53 51 1016.1
20260502203056 22 33 6.4 14.5 0.00 2.08 0.53 53 1016.3
20260502201555 22 348 6.4 17.7 0.00 2.08 0.53 51 1016.7
20260502200053 22 56 6.4 12.9 0.00 2.08 0.53 51 1016.8
20260502194549 22 343 4.8 17.7 0.00 3.05 0.53 53 1016.9
20260502193049 22 26 6.4 14.5 0.00 3.05 0.53 55 1017.2
20260502191556 21 54 9.7 16.1 0.00 3.05 0.53 53 1017.1
20260502190059 21 26 8.0 17.7 0.00 3.05 0.53 55 1017.0
20260502184553 21 27 6.4 16.1 0.00 4.06 0.53 58 1017.1
20260502183101 21 14 8.0 20.9 0.00 4.06 0.53 58 1016.9
20260502181545 21 358 8.0 19.3 0.00 4.06 0.53 61 1017.1
20260502163027 19 27 6.4 20.9 0.00 4.83 0.53 63 1017.8
20260502161524 18 35 6.4 16.1 0.00 4.83 0.53 65 1017.9
20260502151514 17 54 6.4 17.7 0.00 4.83 0.53 71 1017.7
20260502123040 12 37 4.8 11.3 0.00 4.83 0.53 81 1015.3
20260502121547 12 28 4.8 11.3 0.00 4.83 0.53 82 1015.0
20260502114534 12 51 6.4 12.9 0.00 4.83 0.53 82 1014.7
20260502113032 12 53 6.4 11.3 0.00 4.83 0.53 83 1014.5
20260502111531 12 51 8.0 16.1 0.00 4.83 0.53 84 1014.4
20260502110028 12 55 9.7 17.7 0.00 4.83 0.53 85 1014.2
20260502104527 12 46 8.0 16.1 0.00 4.83 0.53 86 1014.1
20260502103029 12 37 8.0 17.7 0.00 4.83 0.53 86 1013.9
20260502101534 12 56 8.0 16.1 0.00 4.83 0.53 86 1013.8
20260502091516 12 49 6.4 12.9 0.00 4.83 0.53 87 1013.1
20260502070119 12 36 4.8 12.9 0.15 4.78 0.48 89 1012.4
20260502064557 12 21 3.2 9.7 0.23 4.72 0.43 89 1013.0
20260502063057 13 8 4.8 11.3 0.30 4.72 0.43 89 1013.1
20260502061554 13 44 4.8 11.3 0.36 4.67 0.38 89 1012.7
20260502060051 13 36 4.8 9.7 0.33 4.62 0.33 89 1013.0
20260502054550 13 6 1.6 11.3 0.20 4.50 0.20 89 1013.7
20260502053059 13 52 8.0 14.5 0.13 4.42 0.13 89 1013.2
20260502051559 13 27 4.8 9.7 0.05 4.32 0.03 89 1013.3
20260502050043 13 50 6.4 12.9 0.03 4.29 0.00 89 1013.0
20260502044541 13 49 9.7 17.7 0.10 4.29 4.29 88 1012.5
20260502043039 13 56 4.8 17.7 0.20 4.29 4.29 89 1013.0
20260502041557 13 25 9.7 17.7 0.18 4.27 4.27 88 1012.7
20260502040032 14 48 6.4 14.5 0.18 4.27 4.27 89 1012.4
20260502034532 14 36 4.8 11.3 0.10 4.19 4.19 88 1012.6
20260502033031 14 41 6.4 17.7 0.00 4.09 4.09 88 1012.4
20260502031526 14 61 8.0 17.7 0.00 4.09 4.09 88 1012.1
20260502030025 14 64 8.0 16.1 0.00 4.09 4.09 88 1012.0
20260502024524 15 47 8.0 19.3 0.00 4.09 4.09 88 1011.4
20260502023021 15 47 9.7 17.7 0.00 4.09 4.09 88 1011.3
20260502021521 15 47 6.4 12.9 0.00 4.09 4.09 88 1011.2
20260502020019 15 44 8.0 12.9 0.00 4.09 4.09 88 1011.1
20260502014525 15 50 6.4 12.9 0.00 4.09 4.09 88 1010.7
20260502013015 15 43 4.8 9.7 0.00 4.09 4.09 88 1010.3
20260502011514 15 36 4.8 9.7 0.00 4.09 4.09 89 1009.9
20260502010013 15 28 4.8 11.3 0.00 4.09 4.09 89 1008.9
20260502004512 15 34 4.8 9.7 0.03 4.09 4.09 89 1008.4
20260502003010 15 35 4.8 11.3 0.08 4.09 4.09 89 1007.8
20260502001510 15 53 6.4 14.5 0.10 4.09 4.09 89 1007.7
20260502000007 15 51 8.0 16.1 0.18 4.09 4.09 88 1006.8
20260501234504 15 39 9.7 14.5 0.15 4.06 4.06 88 1008.9
20260501233002 15 33 8.0 12.9 0.10 4.01 4.01 88 1010.1
20260501231629 16 32 8.0 12.9 0.10 3.99 3.99 87 1010.7
20260501230059 16 33 6.4 16.1 0.05 3.91 3.91 87 1010.6
20260501224558 16 53 8.0 16.1 0.05 3.91 3.91 87 1010.2
20260501223125 16 20 8.0 17.7 0.05 3.91 3.91 88 1009.4
20260501221555 16 53 9.7 17.7 0.00 3.86 3.86 87 1009.6
20260501220054 16 49 8.0 16.1 0.00 3.86 3.86 88 1008.9
20260501214556 16 18 9.7 16.1 0.00 3.86 3.86 88 1008.6
20260501213057 16 38 9.7 17.7 0.08 3.86 3.86 89 1008.4
20260501211554 16 43 9.7 17.7 0.41 3.86 3.86 90 1008.5